Regional Weather Roundup
Issued by NWS

Home | Current Version | Previous Version | Graphics & Text | Print | Product List | Glossary On
Versions: 1 2 3 4 5 6 7 8 9 10 11 12 13 14 15 16 17 18 19 20 21 22 23 24 25 26 27 28 29 30 31 32 33 34 35 36 37 38 39 40 41 42 43 44 45 46 47 48 49 50
000
ASUS45 KCYS 300110
RWRWY

WYOMING REGIONAL WEATHER ROUNDUP
NATIONAL WEATHER SERVICE CHEYENNE WY
700 PM MDT SUN MAR 29 2015

NOTE:  "FAIR" INDICATES FEW OR NO CLOUDS BELOW 12,000 FEET
WITH NO SIGNIFICANT WEATHER AND/OR OBSTRUCTIONS TO VISIBILITY.

WYZ001-300200-
YELLOWSTONE NATIONAL PARK

CITY           SKY/WX    TMP DP  RH WIND       PRES   REMARKS
LK YELLOWSTONE   N/A     42  11  28 VRB5      30.27R
W YELLOWSTONE  NOT AVBL

$$
WYZ002>013-054>058-071-098>099-300200-
NORTHERN WYOMING

CITY           SKY/WX    TMP DP  RH WIND       PRES   REMARKS
JACKSON        CLEAR     52  21  30 VRB5      30.22S
CODY           FAIR      59  12  15 W16G22    30.08S
GREYBULL       FAIR      61  16  17 S6        30.05F
WORLAND        FAIR      59  22  24 E7        30.06F
SHERIDAN       FAIR      53  33  46 SW5       30.05F
BUFFALO        FAIR      53  25  33 SE3       30.09F
GILLETTE       FAIR      54  26  34 N5        30.07S
HULETT         FAIR      55  23  28 W6        30.08S
NEWCASTLE      FAIR      55  19  24 CALM      30.06F

$$
WYZ014>020-022>026-101>103-300200-
CENTRAL WYOMING

CITY           SKY/WX    TMP DP  RH WIND       PRES   REMARKS
BIG PINEY      FAIR      54  12  18 NW13      30.24R
PINEDALE       CLOUDY    50  12  22 NW14      30.25S
DUBOIS         FAIR      46  10  23 NW9       30.20R
LANDER         FAIR      60  19  20 S7        30.10S
RIVERTON       FAIR      61  12  14 NW16      30.10S
CASPER         FAIR      54  16  22 N7        30.11R
DOUGLAS        FAIR      59  12  15 N8        30.10R

$$
WYZ021-027>030-104>119-300200-
SOUTHERN WYOMING

CITY           SKY/WX    TMP DP  RH WIND       PRES   REMARKS
EVANSTON       FAIR      54  15  21 W15       30.27R
KEMMERER       FAIR      52  12  20 W15G22    30.26S
FORT BRIDGER   FAIR      58  12  16 NW17G25   30.28R
ROCK SPRINGS   FAIR      57   9  14 NW13G24   30.20S
DIXON          FAIR      62  17  18 W7        30.21F
RAWLINS        FAIR      56   7  14 W17G28    30.18R
SARATOGA       FAIR      54  12  19 SW14      30.20F
LARAMIE        FAIR      54  10  17 W12       30.19R
CHEYENNE       FAIR      54  20  26 SW14      30.17R
TORRINGTON     FAIR      59  23  25 SE7       30.10R
PINE BLUFFS    FAIR      54  21  28 S7        30.14F

$$


USA.gov is the U.S. government's official web portal to all federal, state and local government web resources and services.